, NV

(GMT )
Eureka Airport

Weather History for K05U - January, 2013

Change the Weather History Date:

Monday, January 28, 2013

  Actual Average Record
Temperature  
Mean Temperature 10 °F -  
Max Temperature 28 °F - - ()
Min Temperature -7 °F - - ()
Degree Days  
Heating Degree Days 54    
Moisture  
Dew Point 10 °F    
Average Humidity 79    
Maximum Humidity 92    
Minimum Humidity 59    
Precipitation  
Precipitation 0.06 in - - ()
Sea Level Pressure  
Sea Level Pressure 29.99 in    
Wind  
Wind Speed 2 mph (WNW)    
Max Wind Speed 9 mph    
Max Gust Speed -    
Visibility 9 miles    
Events      
Averages and records for this station are not official NWS values.
T = Trace of Precipitation, MM = Missing Value Source: NWS Daily Summary

Daily Weather History Graph

Daily Weather History Graph

Search for Another Location

Airport or City:

Trip Planner

Search our weather history database for the weather conditions in past years. The results will help you decide how hot, cold, wet, or windy it might be!

Date:

Astronomy

Jan. 28, 2013 Rise Set
Actual Time 6:54 AM PST 4:59 PM PST
Civil Twilight 6:26 AM PST 5:28 PM PST
Nautical Twilight 5:53 AM PST 6:00 PM PST
Astronomical Twilight 5:22 AM PST 6:32 PM PST
Moon 6:58 PM PST (1/28) 7:23 AM PST (1/28)
Length of Visible Light 11h 02m
Length of Day
10h 04m
Full, 97% of the Moon is Illuminated
Jan 28
Full
Feb 3
Last Quarter
Feb 9
New
Feb 17
First Quarter
Feb 25
Full

Hourly Weather History & Observations

Time (PST) Temp. Windchill Dew Point Humidity Pressure Visibility Wind Dir Wind Speed Gust Speed Precip Events Conditions
12:15 AM 10.4 °F - 8.6 °F 92% 29.97 in 10.0 mi North - - N/A   Mostly Cloudy
12:50 AM 8.6 °F - 5.0 °F 85% 29.97 in 10.0 mi North - - N/A   Overcast
1:15 AM 8.6 °F - 6.8 °F 92% 29.96 in 10.0 mi North - - N/A   Overcast
1:35 AM 8.6 °F - 6.8 °F 92% 29.96 in 10.0 mi North - - N/A   Overcast
1:55 AM 10.4 °F - 6.8 °F 85% 29.96 in 10.0 mi North - - N/A   Overcast
2:15 AM 8.6 °F - 5.0 °F 85% 29.96 in 10.0 mi North - - N/A   Mostly Cloudy
2:30 AM 5.0 °F - 1.4 °F 85% 29.96 in 10.0 mi North - - N/A   Scattered Clouds
2:55 AM 5.0 °F - 1.4 °F 85% 29.96 in 10.0 mi North - - N/A   Overcast
3:10 AM 3.2 °F - -0.4 °F 85% 29.96 in 10.0 mi North - - N/A   Overcast
3:35 AM 1.4 °F - -0.4 °F 92% 29.95 in 10.0 mi North - - N/A   Overcast
4:15 AM -0.4 °F - -2.2 °F 92% 29.95 in 10.0 mi North - - N/A   Clear
4:35 AM -0.4 °F - -2.2 °F 92% 29.94 in 10.0 mi North - - N/A   Clear
4:55 AM -2.2 °F - -7.6 °F 78% 29.94 in 10.0 mi North - - N/A   Clear
5:15 AM -0.4 °F - -4.0 °F 85% 29.94 in 10.0 mi North - - N/A   Clear
5:35 AM -0.4 °F - -4.0 °F 85% 29.95 in 10.0 mi North - - N/A   Clear
5:55 AM -0.4 °F - -2.2 °F 92% 29.95 in 10.0 mi North - - N/A   Clear
6:15 AM -2.2 °F - -7.6 °F 78% 29.96 in 10.0 mi North - - N/A   Partly Cloudy
6:35 AM -7.6 °F - - N/A% 29.97 in 10.0 mi North - - N/A   Partly Cloudy
6:55 AM -4.0 °F - -9.4 °F 78% 29.97 in 10.0 mi North - - N/A   Clear
7:15 AM -4.0 °F - -9.4 °F 78% 29.98 in 10.0 mi North - - N/A   Partly Cloudy
7:35 AM -2.2 °F - -7.6 °F 78% 29.98 in 3.0 mi North - - N/A   Clear
7:55 AM 1.4 °F - -2.2 °F 85% 29.99 in 5.0 mi North - - N/A   Mostly Cloudy
8:15 AM 3.2 °F - -0.4 °F 85% 29.99 in 5.0 mi Calm Calm - N/A   Mostly Cloudy
8:35 AM 3.2 °F - -0.4 °F 85% 30.00 in 10.0 mi Calm Calm - N/A   Mostly Cloudy
8:55 AM 5.0 °F - 1.4 °F 85% 30.00 in 10.0 mi North - - N/A   Mostly Cloudy
9:15 AM 10.4 °F - 6.8 °F 85% 30.00 in 10.0 mi Calm Calm - N/A   Overcast
9:35 AM 12.2 °F - 8.6 °F 85% 30.00 in 10.0 mi North - - N/A   Overcast
9:50 AM 14.0 °F - 10.4 °F 86% 30.01 in 10.0 mi North - - N/A   Overcast
10:15 AM 17.6 °F 12.3 °F 12.2 °F 79% 30.02 in 10.0 mi South 3.5 mph - N/A   Overcast
10:35 AM 19.4 °F 12.8 °F 14.0 °F 80% 30.02 in 10.0 mi SW 4.6 mph - N/A   Overcast
10:55 AM 21.2 °F 16.4 °F 14.0 °F 74% 30.02 in 10.0 mi SSW 3.5 mph - N/A   Overcast
11:15 AM 24.8 °F - 15.8 °F 69% 30.02 in 10.0 mi Calm Calm - N/A   Overcast
11:35 AM 26.6 °F - 15.8 °F 64% 30.01 in 10.0 mi Calm Calm - N/A   Overcast
11:55 AM 24.8 °F - 15.8 °F 69% 30.01 in 10.0 mi Calm Calm - N/A   Mostly Cloudy
12:15 PM 24.8 °F 17.9 °F 15.8 °F 69% 30.01 in 10.0 mi ENE 5.8 mph - 0.01 in   Scattered Clouds
12:35 PM 24.8 °F 20.5 °F 15.8 °F 69% 30.01 in 10.0 mi East 3.5 mph - 0.01 in   Mostly Cloudy
12:55 PM 26.6 °F - 14.0 °F 59% 30.00 in 10.0 mi Calm Calm - 0.02 in   Overcast
1:15 PM 26.6 °F 21.2 °F 15.8 °F 64% 30.00 in 10.0 mi ENE 4.6 mph - 0.01 in   Overcast
1:30 PM 26.6 °F 21.2 °F 15.8 °F 64% 30.00 in 10.0 mi SW 4.6 mph - 0.02 in   Overcast
1:55 PM 26.6 °F 21.2 °F 14.0 °F 59% 30.00 in 10.0 mi SSE 4.6 mph - 0.03 in   Overcast
2:15 PM 28.4 °F 23.3 °F 15.8 °F 59% 30.00 in 10.0 mi SW 4.6 mph - N/A   Overcast
2:35 PM 26.6 °F 20.0 °F 15.8 °F 64% 30.00 in 10.0 mi North 5.8 mph - N/A   Overcast
3:15 PM 28.4 °F 22.2 °F 15.8 °F 59% 30.00 in 10.0 mi NE 5.8 mph - N/A   Overcast
3:35 PM 26.6 °F 22.6 °F 15.8 °F 64% 30.00 in 10.0 mi NNW 3.5 mph - 0.01 in   Overcast
3:55 PM 26.6 °F 19.1 °F 15.8 °F 64% 30.00 in 10.0 mi WNW 6.9 mph - 0.01 in   Overcast
4:15 PM 24.8 °F 19.1 °F 15.8 °F 69% 30.01 in 10.0 mi NNW 4.6 mph - N/A   Mostly Cloudy
4:35 PM 23.0 °F - 15.8 °F 74% 30.00 in 10.0 mi North - - N/A   Overcast
4:55 PM 23.0 °F - 15.8 °F 74% 30.00 in 10.0 mi North - - N/A   Overcast
5:15 PM 21.2 °F - 14.0 °F 74% 30.00 in 10.0 mi North - - N/A   Overcast
5:35 PM 19.4 °F - 14.0 °F 80% 30.01 in 10.0 mi North - - N/A   Overcast
5:55 PM 19.4 °F - 14.0 °F 80% 30.02 in 10.0 mi North - - N/A   Overcast
6:15 PM 19.4 °F - 15.8 °F 86% 30.02 in 10.0 mi North - - N/A   Overcast
6:35 PM 21.2 °F 10.9 °F 15.8 °F 80% 30.02 in 10.0 mi NW 9.2 mph - N/A   Overcast
6:55 PM 21.2 °F - 15.8 °F 80% 30.02 in 10.0 mi North - - N/A   Overcast
7:10 PM 21.2 °F - 15.8 °F 80% 30.01 in 10.0 mi North - - N/A   Overcast
7:30 PM 23.0 °F - 15.8 °F 74% 30.01 in 10.0 mi North - - N/A   Overcast
7:50 PM 23.0 °F - 15.8 °F 74% 30.01 in 10.0 mi North - - N/A   Overcast
8:10 PM 23.0 °F - 17.6 °F 80% 30.01 in 9.0 mi North - - N/A   Overcast
8:30 PM 23.0 °F - 17.6 °F 80% 30.00 in 7.0 mi Calm Calm - N/A   Overcast
8:50 PM 21.2 °F - 17.6 °F 86% 30.00 in 7.0 mi North - - N/A   Overcast
9:15 PM 21.2 °F - 17.6 °F 86% 30.01 in 5.0 mi North - - N/A   Overcast
9:35 PM 23.0 °F - 17.6 °F 80% 30.00 in 3.0 mi North - - N/A   Mostly Cloudy
9:50 PM 23.0 °F - 17.6 °F 80% 30.00 in 3.0 mi North - - N/A   Overcast
10:15 PM 23.0 °F - 19.4 °F 86% 30.00 in 3.0 mi North - - N/A   Overcast
10:30 PM 23.0 °F - 19.4 °F 86% 29.99 in 2.5 mi North - - N/A   Overcast
10:55 PM 23.0 °F - 19.4 °F 86% 29.99 in 2.0 mi North - - N/A   Overcast
11:15 PM 23.0 °F - 19.4 °F 86% 29.99 in 1.8 mi North - - N/A   Overcast
11:35 PM 23.0 °F - 19.4 °F 86% 29.98 in 4.0 mi North - - N/A   Overcast
11:55 PM 23.0 °F 13.9 °F 19.4 °F 86% 29.97 in 3.0 mi WNW 8.1 mph - N/A   Overcast